Weather History for KAGC - October, 2013

Change the Weather History Date:

Tuesday, October 8, 2013

  Actual Average Record
Temperature  
Mean Temperature 53 °F -  
Max Temperature 64 °F 67 °F 87 °F (2007)
Min Temperature 42 °F 44 °F 30 °F (2001)
Degree Days  
Heating Degree Days 12    
Growing Degree Days 3 (Base 50)    
Moisture  
Dew Point 44 °F    
Average Humidity 74    
Maximum Humidity 100    
Minimum Humidity 46    
Precipitation  
Precipitation 0.00 in - - ()
Sea Level Pressure  
Sea Level Pressure 30.27 in    
Wind  
Wind Speed 5 mph (ENE)    
Max Wind Speed 8 mph    
Max Gust Speed -    
Visibility 8 miles    
Events Fog    
Averages and records for this station are not official NWS values.
T = Trace of Precipitation, MM = Missing Value Source: NWS Daily Summary

Daily Weather History Graph

Daily Weather History Graph

Search for Another Location

Airport or City:

Trip Planner

Search our weather history database for the weather conditions in past years. The results will help you decide how hot, cold, wet, or windy it might be!

Date:

Astronomy

Oct. 08, 2013 Rise Set
Actual Time 7:23 AM EDT 6:50 PM EDT
Civil Twilight 6:56 AM EDT 7:17 PM EDT
Nautical Twilight 6:24 AM EDT 7:48 PM EDT
Astronomical Twilight 5:52 AM EDT 8:20 PM EDT
Moon 11:16 AM EDT (10/8) 9:24 PM EDT (10/8)
Length of Visible Light 12h 21m
Length of Day
11h 26m
Waxing Crescent, 16% of the Moon is Illuminated
Oct 8
Waxing Crescent
Oct 11
First Quarter
Oct 18
Full
Oct 26
Last Quarter
Nov 3
New

Hourly Weather History & Observations

Time (EDT) Temp. Windchill Dew Point Humidity Pressure Visibility Wind Dir Wind Speed Gust Speed Precip Events Conditions
12:53 AM 48.9 °F - 43.0 °F 80% 30.15 in 10.0 mi West 5.8 mph - N/A   Clear
1:53 AM 50.0 °F - 43.0 °F 77% 30.16 in 10.0 mi NW 5.8 mph - N/A   Clear
2:53 AM 48.9 °F - 43.0 °F 80% 30.17 in 10.0 mi WNW 3.5 mph - N/A   Clear
3:53 AM 48.0 °F - 43.0 °F 83% 30.18 in 10.0 mi NW 5.8 mph - N/A   Clear
4:53 AM 48.0 °F - 44.1 °F 86% 30.20 in 10.0 mi NW 5.8 mph - N/A   Clear
5:53 AM 46.0 °F 43.9 °F 44.1 °F 93% 30.22 in 10.0 mi NNW 4.6 mph - N/A   Clear
6:53 AM 44.1 °F - 43.0 °F 96% 30.25 in 10.0 mi Calm Calm - N/A   Clear
7:53 AM 44.1 °F 40.1 °F 43.0 °F 96% 30.28 in 10.0 mi SE 6.9 mph - N/A   Partly Cloudy
7:55 AM 42.8 °F 38.6 °F 42.8 °F 100% 30.26 in 0.5 mi SE 6.9 mph - N/A Fog Fog
8:02 AM 44.6 °F 41.4 °F 42.8 °F 93% 30.26 in 0.1 mi SSE 5.8 mph - N/A Fog Fog
8:10 AM 44.6 °F 42.2 °F 44.6 °F 100% 30.26 in 0.1 mi SSE 4.6 mph - N/A Fog Fog
8:50 AM 44.6 °F 42.2 °F 44.6 °F 100% 30.28 in 0.1 mi SSE 4.6 mph - N/A Fog Fog
8:53 AM 45.0 °F 43.5 °F 45.0 °F 100% 30.31 in 7.0 mi SSE 3.5 mph - N/A   Clear
9:53 AM 48.9 °F - 46.0 °F 90% 30.32 in 8.0 mi Calm Calm - N/A   Clear
10:53 AM 54.0 °F - 46.9 °F 77% 30.32 in 10.0 mi Variable 4.6 mph - N/A   Clear
11:53 AM 57.0 °F - 46.0 °F 67% 30.33 in 10.0 mi Variable 4.6 mph - N/A   Partly Cloudy
12:35 PM 60.8 °F - 44.6 °F 55% 30.31 in 10.0 mi Variable 6.9 mph - N/A   Mostly Cloudy
12:53 PM 61.0 °F - 44.1 °F 54% 30.32 in 10.0 mi NE 8.1 mph - N/A   Scattered Clouds
1:53 PM 63.0 °F - 44.1 °F 50% 30.29 in 10.0 mi Variable 5.8 mph - N/A   Scattered Clouds
2:53 PM 62.1 °F - 43.0 °F 50% 30.29 in 10.0 mi ENE 5.8 mph - N/A   Partly Cloudy
3:53 PM 64.0 °F - 43.0 °F 46% 30.27 in 10.0 mi Variable 5.8 mph - N/A   Clear
4:53 PM 63.0 °F - 42.1 °F 46% 30.26 in 10.0 mi Variable 4.6 mph - N/A   Clear
5:53 PM 62.1 °F - 42.1 °F 48% 30.28 in 10.0 mi NE 3.5 mph - N/A   Clear
6:53 PM 60.1 °F - 43.0 °F 53% 30.29 in 10.0 mi NE 3.5 mph - N/A   Clear
7:53 PM 57.9 °F - 43.0 °F 58% 30.29 in 10.0 mi North 3.5 mph - N/A   Clear
8:53 PM 57.0 °F - 43.0 °F 59% 30.29 in 10.0 mi NNE 3.5 mph - N/A   Clear
9:53 PM 57.0 °F - 42.1 °F 57% 30.30 in 10.0 mi NE 3.5 mph - N/A   Clear
10:53 PM 51.1 °F - 46.0 °F 83% 30.32 in 10.0 mi SSE 6.9 mph - N/A   Clear
11:53 PM 53.1 °F - 43.0 °F 69% 30.31 in 10.0 mi ENE 3.5 mph - N/A   Clear